Date String (YYYY-MM-DD hh:mm:ss) UTC,Instrument flags,absolute air pressure of the measurement (hPa),sample flow rate (lpm),inlet stack bypass flow (lpm),air temperature of the measurement (°C),ambient temperature measured by the external sensor (°C),aerosol sample conditioner tube jacket temperature (°C),OPC LED temperature (°C),internal box temperature (°C),relative humidity of the measurement (%),span deviation,mass concentration of particles derived from Lorenz-Mie calculation of OPC scattering (μg/m³),mass concentration of particles derived from Lorenz-Mie calculation of OPC scattering (μg/m³),mass concentration of particles derived from Lorenz-Mie calculation of OPC scattering (μg/m³)
DateTimeUTC,F1_M11,P_M11,Q1_M11,Q2_M11,T1_M11,T2_M11,T3_M11,T4_M11,T5_M11,U1_M11,ZSPAN_M11,X0_M11,X2_M11,X1_M11
2023-12-06 00:00:00,SystemResetWarning,0835.8,5.01,000.00,025.9,025.0,000.0,034.1,027.4,16.1,0006.4,0011.93,0006.92,0006.26
2023-12-06 00:01:00,SystemResetWarning,0835.8,5.01,000.00,026.0,025.1,000.0,034.1,027.4,16.2,0006.5,0012.00,0006.97,0006.30
2023-12-06 00:02:00,SystemResetWarning,0835.8,5.00,000.00,026.0,025.2,000.0,034.1,027.5,16.3,0006.5,0012.18,0007.02,0006.31
2023-12-06 00:03:00,SystemResetWarning,0835.8,5.00,000.00,026.0,025.2,000.0,034.2,027.5,16.3,0006.5,0012.32,0007.04,0006.33
2023-12-06 00:04:00,SystemResetWarning,0835.8,4.99,000.00,026.1,025.3,000.0,034.2,027.5,16.3,0006.7,0012.14,0007.07,0006.35
2023-12-06 00:05:00,SystemResetWarning,0835.8,5.00,000.00,026.1,025.3,000.0,034.2,027.6,16.2,0006.8,0012.06,0007.06,0006.35
2023-12-06 00:06:00,SystemResetWarning,0835.8,5.01,000.00,026.1,025.4,000.0,034.2,027.6,16.0,0006.5,0011.97,0007.04,0006.33
2023-12-06 00:07:00,SystemResetWarning,0835.8,4.99,000.00,026.1,025.4,000.0,034.2,027.6,16.1,0006.6,0012.24,0007.00,0006.28
2023-12-06 00:08:00,SystemResetWarning,0835.8,4.98,000.00,026.2,025.4,000.0,034.3,027.6,16.1,0006.9,0012.80,0006.99,0006.25
2023-12-06 00:09:00,SystemResetWarning,0835.8,5.01,000.00,026.2,025.5,000.0,034.3,027.7,16.0,0006.9,0013.18,0006.98,0006.22
2023-12-06 00:10:00,SystemResetWarning,0835.9,5.01,000.00,026.2,025.5,000.0,034.3,027.7,15.9,0006.8,0013.27,0006.93,0006.18
2023-12-06 00:11:00,SystemResetWarning,0835.9,5.00,000.00,026.3,025.5,000.0,034.3,027.7,15.9,0007.0,0013.05,0006.92,0006.18
2023-12-06 00:12:00,SystemResetWarning,0835.9,5.00,000.00,026.3,025.6,000.0,034.4,027.8,16.0,0007.6,0013.13,0006.90,0006.18
2023-12-06 00:13:00,SystemResetWarning,0835.9,4.99,000.00,026.3,025.6,000.0,034.4,027.8,15.9,0007.5,0013.66,0006.93,0006.23
2023-12-06 00:14:00,SystemResetWarning,0835.9,5.00,000.00,026.3,025.1,000.0,034.4,027.8,15.9,0007.4,0014.37,0006.99,0006.28
2023-12-06 00:15:00,SystemResetWarning,0835.9,5.00,000.00,026.3,023.1,000.0,034.4,027.6,15.9,0007.3,0014.34,0006.98,0006.29
2023-12-06 00:16:00,SystemResetWarning,0835.9,5.02,000.00,026.1,022.3,000.0,034.3,027.4,15.9,0007.1,0014.29,0006.96,0006.28
2023-12-06 00:17:00,SystemResetWarning,0835.9,5.01,000.00,026.0,022.4,000.0,034.3,026.8,15.9,0007.1,0014.33,0006.98,0006.29
2023-12-06 00:18:00,SystemResetWarning,0835.9,5.00,000.00,025.8,022.8,000.0,034.2,026.8,16.2,0007.1,0014.04,0007.09,0006.38
2023-12-06 00:19:00,SystemResetWarning,0835.9,4.99,000.00,025.8,023.2,000.0,034.2,026.8,16.2,0006.8,0012.94,0007.19,0006.46
2023-12-06 00:20:00,SystemResetWarning,0835.9,5.00,000.00,025.8,023.5,000.0,034.2,026.9,16.2,0006.9,0012.47,0007.20,0006.50
2023-12-06 00:21:00,SystemResetWarning,0835.9,5.00,000.00,025.8,023.9,000.0,034.1,027.0,16.2,0007.0,0012.29,0007.24,0006.54
2023-12-06 00:22:00,SystemResetWarning,0835.9,4.99,000.00,025.8,024.1,000.0,034.1,027.0,16.2,0006.7,0012.46,0007.28,0006.54
2023-12-06 00:23:00,SystemResetWarning,0835.9,4.99,000.00,025.8,024.3,000.0,034.1,027.1,16.2,0005.9,0012.39,0007.30,0006.53
2023-12-06 00:24:00,SystemResetWarning,0835.9,4.99,000.00,025.8,024.5,000.0,034.1,027.2,16.2,0005.6,0011.88,0007.27,0006.54
2023-12-06 00:25:00,SystemResetWarning,0835.9,5.00,000.00,025.8,024.7,000.0,034.1,027.2,16.2,0006.1,0011.32,0007.25,0006.53
2023-12-06 00:26:00,SystemResetWarning,0835.9,5.00,000.00,025.9,024.8,000.0,034.1,027.3,16.2,0006.1,0012.35,0007.25,0006.51
2023-12-06 00:27:00,SystemResetWarning,0835.9,5.00,000.00,025.9,024.9,000.0,034.1,027.3,16.2,0006.1,0012.52,0007.24,0006.51
2023-12-06 00:28:00,SystemResetWarning,0835.9,4.99,000.00,025.9,024.9,000.0,034.1,027.3,16.2,0006.0,0012.64,0007.22,0006.49
2023-12-06 00:29:00,SystemResetWarning,0835.9,5.01,000.00,025.9,025.0,000.0,034.1,027.3,16.2,0005.8,0013.69,0007.17,0006.47
2023-12-06 00:30:00,SystemResetWarning,0835.9,5.01,000.00,025.9,025.1,000.0,034.1,027.4,16.2,0005.9,0013.69,0007.09,0006.44
2023-12-06 00:31:00,SystemResetWarning,0835.9,5.00,000.00,026.0,025.1,000.0,034.1,027.4,16.1,0006.0,0014.23,0007.11,0006.43
2023-12-06 00:32:00,SystemResetWarning,0835.9,5.00,000.00,026.0,025.2,000.0,034.2,027.4,16.1,0005.4,0014.62,0007.12,0006.43
2023-12-06 00:33:00,SystemResetWarning,0835.9,5.00,000.00,026.0,025.2,000.0,034.2,027.5,16.1,0005.2,0015.21,0007.12,0006.43
2023-12-06 00:34:00,SystemResetWarning,0836.0,5.00,000.00,026.0,025.2,000.0,034.2,027.5,16.1,0005.1,0015.64,0007.15,0006.44
2023-12-06 00:35:00,SystemResetWarning,0835.9,4.99,000.00,026.1,025.3,000.0,034.2,027.5,16.0,0005.1,0015.82,0007.18,0006.44
2023-12-06 00:36:00,SystemResetWarning,0835.9,5.00,000.00,026.1,025.3,000.0,034.2,027.6,16.0,0004.5,0016.15,0007.20,0006.46
2023-12-06 00:37:00,SystemResetWarning,0836.0,5.00,000.00,026.1,025.3,000.0,034.2,027.6,16.0,0004.6,0015.57,0007.21,0006.48
2023-12-06 00:38:00,SystemResetWarning,0835.9,5.01,000.00,026.1,025.4,000.0,034.3,027.6,15.9,0004.3,0015.58,0007.25,0006.50
2023-12-06 00:39:00,SystemResetWarning,0835.9,5.00,000.00,026.2,025.4,000.0,034.3,027.6,15.9,0004.2,0015.71,0007.28,0006.53
2023-12-06 00:40:00,SystemResetWarning,0835.9,4.99,000.00,026.2,025.4,000.0,034.3,027.6,15.6,0004.6,0014.86,0007.31,0006.55
2023-12-06 00:41:00,SystemResetWarning,0835.9,4.99,000.00,026.2,025.4,000.0,034.3,027.6,15.4,0004.8,0014.87,0007.38,0006.58
2023-12-06 00:42:00,SystemResetWarning,0835.9,5.01,000.00,026.2,025.4,000.0,034.3,027.6,15.3,0004.8,0014.88,0007.40,0006.59
2023-12-06 00:43:00,SystemResetWarning,0835.9,5.02,000.00,026.2,025.5,000.0,034.4,027.7,15.1,0004.9,0014.60,0007.37,0006.58
2023-12-06 00:44:00,SystemResetWarning,0835.9,4.99,000.00,026.2,025.5,000.0,034.4,027.7,14.7,0005.2,0014.03,0007.37,0006.60
2023-12-06 00:45:00,SystemResetWarning,0835.9,4.99,000.00,026.3,025.5,000.0,034.4,027.7,14.6,0005.4,0014.23,0007.35,0006.61
2023-12-06 00:46:00,SystemResetWarning,0835.9,5.00,000.00,026.3,025.0,000.0,034.4,027.7,14.4,0005.6,0014.38,0007.32,0006.63
2023-12-06 00:47:00,SystemResetWarning,0835.9,5.00,000.00,026.2,022.9,000.0,034.4,027.5,13.6,0005.7,0014.68,0007.34,0006.64
2023-12-06 00:48:00,SystemResetWarning,0835.9,5.00,000.00,026.1,022.1,000.0,034.3,027.3,13.3,0005.8,0014.57,0007.39,0006.66
2023-12-06 00:49:00,SystemResetWarning,0835.9,5.01,000.00,025.9,022.3,000.0,034.3,026.8,13.5,0006.1,0014.57,0007.37,0006.66
2023-12-06 00:50:00,SystemResetWarning,0835.9,5.01,000.00,025.8,022.7,000.0,034.2,026.7,13.7,0006.3,0014.90,0007.32,0006.63
2023-12-06 00:51:00,SystemResetWarning,0835.9,4.99,000.00,025.8,023.1,000.0,034.2,026.8,13.7,0006.1,0014.75,0007.26,0006.58
2023-12-06 00:52:00,SystemResetWarning,0835.9,4.99,000.00,025.7,023.4,000.0,034.1,026.8,13.8,0005.9,0014.70,0007.19,0006.52
2023-12-06 00:53:00,SystemResetWarning,0835.9,5.00,000.00,025.7,023.7,000.0,034.1,026.9,14.7,0006.1,0014.30,0007.06,0006.43
2023-12-06 00:54:00,SystemResetWarning,0835.9,5.01,000.00,025.7,024.0,000.0,034.1,027.0,14.9,0006.3,0014.94,0006.94,0006.32
2023-12-06 00:55:00,SystemResetWarning,0835.9,5.01,000.00,025.7,024.2,000.0,034.1,027.1,15.3,0006.1,0015.22,0006.83,0006.20
2023-12-06 00:56:00,SystemResetWarning,0835.9,4.99,000.00,025.8,024.4,000.0,034.1,027.1,14.8,0006.3,0014.15,0006.63,0006.02
2023-12-06 00:57:00,SystemResetWarning,0835.9,5.00,000.00,025.8,024.6,000.0,034.1,027.1,14.6,0006.3,0013.49,0006.39,0005.78
2023-12-06 00:58:00,SystemResetWarning,0835.9,5.00,000.00,025.8,024.7,000.0,034.1,027.2,14.6,0006.2,0012.63,0006.09,0005.52
2023-12-06 00:59:00,SystemResetWarning,0835.9,5.01,000.00,025.8,024.8,000.0,034.1,027.2,15.3,0006.1,0011.98,0005.80,0005.28
